Year,Month,Day,Hour,Minute,Value (Times are PST for temperature in C)
2006,10,22,00,00,3.90
2006,10,22,00,01,3.90
2006,10,22,00,02,3.90
2006,10,22,00,03,3.90
2006,10,22,00,04,3.80
2006,10,22,00,05,3.80
2006,10,22,00,06,3.80
2006,10,22,00,07,3.80
2006,10,22,00,08,3.80
2006,10,22,00,09,3.80
2006,10,22,00,10,3.80
2006,10,22,00,11,3.80
2006,10,22,00,12,3.80
2006,10,22,00,13,3.80
2006,10,22,00,14,3.70
2006,10,22,00,15,3.70
2006,10,22,00,16,3.70
2006,10,22,00,17,3.70
2006,10,22,00,18,3.70
2006,10,22,00,19,3.70
2006,10,22,00,20,3.70
2006,10,22,00,21,3.60
2006,10,22,00,22,3.60
2006,10,22,00,23,3.60
2006,10,22,00,24,3.60
2006,10,22,00,25,3.60
2006,10,22,00,26,3.50
2006,10,22,00,27,3.50
2006,10,22,00,28,3.50
2006,10,22,00,29,3.50
2006,10,22,00,30,3.50
2006,10,22,00,31,3.40
2006,10,22,00,32,3.40
2006,10,22,00,33,3.40
2006,10,22,00,34,3.40
2006,10,22,00,35,3.40
2006,10,22,00,36,3.40
2006,10,22,00,37,3.40
2006,10,22,00,38,3.40
2006,10,22,00,39,3.40
2006,10,22,00,40,3.40
2006,10,22,00,41,3.30
2006,10,22,00,42,3.30
2006,10,22,00,43,3.30
2006,10,22,00,44,3.30
2006,10,22,00,45,3.30
2006,10,22,00,46,3.30
2006,10,22,00,47,3.30
2006,10,22,00,48,3.30
2006,10,22,00,49,3.30
2006,10,22,00,50,3.30
2006,10,22,00,51,3.30
2006,10,22,00,52,3.30
2006,10,22,00,53,3.30
2006,10,22,00,54,3.30
2006,10,22,00,55,3.30
2006,10,22,00,56,3.30
2006,10,22,00,57,3.30
2006,10,22,00,58,3.30
2006,10,22,00,59,3.30
2006,10,22,01,00,3.30
2006,10,22,01,01,3.30
2006,10,22,01,02,3.30
2006,10,22,01,03,3.30
2006,10,22,01,04,3.30
2006,10,22,01,05,3.30
2006,10,22,01,06,3.30
2006,10,22,01,07,3.30
2006,10,22,01,08,3.30
2006,10,22,01,09,3.30
2006,10,22,01,10,3.30
2006,10,22,01,11,3.30
2006,10,22,01,12,3.30
2006,10,22,01,13,3.30
2006,10,22,01,14,3.30
2006,10,22,01,15,3.30
2006,10,22,01,16,3.30
2006,10,22,01,17,3.30
2006,10,22,01,18,3.20
2006,10,22,01,19,3.20
2006,10,22,01,20,3.20
2006,10,22,01,21,3.20
2006,10,22,01,22,3.20
2006,10,22,01,23,3.20
2006,10,22,01,24,3.20
2006,10,22,01,25,3.20
2006,10,22,01,26,3.20
2006,10,22,01,27,3.20
2006,10,22,01,28,3.20
2006,10,22,01,29,3.20
2006,10,22,01,30,3.20
2006,10,22,01,31,3.20
2006,10,22,01,32,3.20
2006,10,22,01,33,3.20
2006,10,22,01,34,3.10
2006,10,22,01,35,3.10
2006,10,22,01,36,3.10
2006,10,22,01,37,3.10
2006,10,22,01,38,3.10
2006,10,22,01,39,3.10
2006,10,22,01,40,3.10
2006,10,22,01,41,3.10
2006,10,22,01,42,3.10
2006,10,22,01,43,3.10
2006,10,22,01,44,3.10
2006,10,22,01,45,3.10
2006,10,22,01,46,3.10
2006,10,22,01,47,3.10
2006,10,22,01,48,3.10
2006,10,22,01,49,3.10
2006,10,22,01,50,3.10
2006,10,22,01,51,3.10
2006,10,22,01,52,3.10
2006,10,22,01,53,3.10
2006,10,22,01,54,3.10
2006,10,22,01,55,3.10
2006,10,22,01,56,3.10
2006,10,22,01,57,3.10
2006,10,22,01,58,3.10
2006,10,22,01,59,3.10
2006,10,22,02,00,3.10
2006,10,22,02,01,3.10
2006,10,22,02,02,3.10
2006,10,22,02,03,3.10
2006,10,22,02,04,3.10
2006,10,22,02,05,3.10
2006,10,22,02,06,3.10
2006,10,22,02,07,3.10
2006,10,22,02,08,3.10
2006,10,22,02,09,3.10
2006,10,22,02,10,3.10
2006,10,22,02,11,3.10
2006,10,22,02,12,3.10
2006,10,22,02,13,3.10
2006,10,22,02,14,3.10
2006,10,22,02,15,3.10
2006,10,22,02,16,3.10
2006,10,22,02,17,3.10
2006,10,22,02,18,3.10
2006,10,22,02,19,3.10
2006,10,22,02,20,3.10
2006,10,22,02,21,3.10
2006,10,22,02,22,3.10
2006,10,22,02,23,3.10
2006,10,22,02,24,3.10
2006,10,22,02,25,3.10
2006,10,22,02,26,3.10
2006,10,22,02,27,3.10
2006,10,22,02,28,3.10
2006,10,22,02,29,3.10
2006,10,22,02,30,3.10
2006,10,22,02,31,3.10
2006,10,22,02,32,3.00
2006,10,22,02,33,2.90
2006,10,22,02,34,2.90
2006,10,22,02,35,2.90
2006,10,22,02,36,2.90
2006,10,22,02,37,2.90
2006,10,22,02,38,2.90
2006,10,22,02,39,2.90
2006,10,22,02,40,2.90
2006,10,22,02,41,2.90
2006,10,22,02,42,2.80
2006,10,22,02,43,2.80
2006,10,22,02,44,2.80
2006,10,22,02,45,2.80
2006,10,22,02,46,2.80
2006,10,22,02,47,2.80
2006,10,22,02,48,2.80
2006,10,22,02,49,2.70
2006,10,22,02,50,2.70
2006,10,22,02,51,2.70
2006,10,22,02,52,2.70
2006,10,22,02,53,2.70
2006,10,22,02,54,2.70
2006,10,22,02,55,2.70
2006,10,22,02,56,2.70
2006,10,22,02,57,2.70
2006,10,22,02,58,2.70
2006,10,22,02,59,2.70
2006,10,22,03,00,2.70
2006,10,22,03,01,2.70
2006,10,22,03,02,2.70
2006,10,22,03,03,2.70
2006,10,22,03,04,2.70
2006,10,22,03,05,2.70
2006,10,22,03,06,2.70
2006,10,22,03,07,2.70
2006,10,22,03,08,2.70
2006,10,22,03,09,2.60
2006,10,22,03,10,2.60
2006,10,22,03,11,2.60
2006,10,22,03,12,2.60
2006,10,22,03,13,2.60
2006,10,22,03,14,2.60
2006,10,22,03,15,2.60
2006,10,22,03,16,2.60
2006,10,22,03,17,2.60
2006,10,22,03,18,2.60
2006,10,22,03,19,2.60
2006,10,22,03,20,2.60
2006,10,22,03,21,2.60
2006,10,22,03,22,2.50
2006,10,22,03,23,2.60
2006,10,22,03,24,2.50
2006,10,22,03,25,2.50
2006,10,22,03,26,2.50
2006,10,22,03,27,2.50
2006,10,22,03,28,2.50
2006,10,22,03,29,2.50
2006,10,22,03,30,2.50
2006,10,22,03,31,2.50
2006,10,22,03,32,2.50
2006,10,22,03,33,2.50
2006,10,22,03,34,2.50
2006,10,22,03,35,2.50
2006,10,22,03,36,2.50
2006,10,22,03,37,2.40
2006,10,22,03,38,2.40
2006,10,22,03,39,2.40
2006,10,22,03,40,2.40
2006,10,22,03,41,2.40
2006,10,22,03,42,2.40
2006,10,22,03,43,2.40
2006,10,22,03,44,2.40
2006,10,22,03,45,2.40
2006,10,22,03,46,2.40
2006,10,22,03,47,2.40
2006,10,22,03,48,2.40
2006,10,22,03,49,2.40
2006,10,22,03,50,2.40
2006,10,22,03,51,2.50
2006,10,22,03,52,2.50
2006,10,22,03,53,2.50
2006,10,22,03,54,2.50
2006,10,22,03,55,2.50
2006,10,22,03,56,2.50
2006,10,22,03,57,2.50
2006,10,22,03,58,2.50
2006,10,22,03,59,2.50
2006,10,22,04,00,2.50
2006,10,22,04,01,2.50
2006,10,22,04,02,2.50
2006,10,22,04,03,2.50
2006,10,22,04,04,2.60
2006,10,22,04,05,2.60
2006,10,22,04,06,2.60
2006,10,22,04,07,2.60
2006,10,22,04,08,2.60
2006,10,22,04,09,2.70
2006,10,22,04,10,2.70
2006,10,22,04,11,2.70
2006,10,22,04,12,2.70
2006,10,22,04,13,2.70
2006,10,22,04,14,2.70
2006,10,22,04,15,2.70
2006,10,22,04,16,2.70
2006,10,22,04,17,2.70
2006,10,22,04,18,2.70
2006,10,22,04,19,2.70
2006,10,22,04,20,2.70
2006,10,22,04,21,2.70
2006,10,22,04,22,2.70
2006,10,22,04,23,2.70
2006,10,22,04,24,2.70
2006,10,22,04,25,2.70
2006,10,22,04,26,2.70
2006,10,22,04,27,2.70
2006,10,22,04,28,2.70
2006,10,22,04,29,2.70
2006,10,22,04,30,2.70
2006,10,22,04,31,2.70
2006,10,22,04,32,2.70
2006,10,22,04,33,2.70
2006,10,22,04,34,2.70
2006,10,22,04,35,2.70
2006,10,22,04,36,2.70
2006,10,22,04,37,2.70
2006,10,22,04,38,2.70
2006,10,22,04,39,2.70
2006,10,22,04,40,2.70
2006,10,22,04,41,2.70
2006,10,22,04,42,2.70
2006,10,22,04,43,2.70
2006,10,22,04,44,2.70
2006,10,22,04,45,2.70
2006,10,22,04,46,2.70
2006,10,22,04,47,2.70
2006,10,22,04,48,2.70
2006,10,22,04,49,2.70
2006,10,22,04,50,2.70
2006,10,22,04,51,2.70
2006,10,22,04,52,2.70
2006,10,22,04,53,2.70
2006,10,22,04,54,2.70
2006,10,22,04,55,2.70
2006,10,22,04,56,2.70
2006,10,22,04,57,2.70
2006,10,22,04,58,2.70
2006,10,22,04,59,2.70
2006,10,22,05,00,2.70
2006,10,22,05,01,2.70
2006,10,22,05,02,2.70
2006,10,22,05,03,2.70
2006,10,22,05,04,2.70
2006,10,22,05,05,2.70
2006,10,22,05,06,2.70
2006,10,22,05,07,2.70
2006,10,22,05,08,2.60
2006,10,22,05,09,2.60
2006,10,22,05,10,2.60
2006,10,22,05,11,2.60
2006,10,22,05,12,2.60
2006,10,22,05,13,2.60
2006,10,22,05,14,2.60
2006,10,22,05,15,2.60
2006,10,22,05,16,2.60
2006,10,22,05,17,2.60
2006,10,22,05,18,2.60
2006,10,22,05,19,2.50
2006,10,22,05,20,2.50
2006,10,22,05,21,2.50
2006,10,22,05,22,2.50
2006,10,22,05,23,2.50
2006,10,22,05,24,2.50
2006,10,22,05,25,2.50
2006,10,22,05,26,2.50
2006,10,22,05,27,2.50
2006,10,22,05,28,2.50
2006,10,22,05,29,2.40
2006,10,22,05,30,2.40
2006,10,22,05,31,2.40
2006,10,22,05,32,2.40
2006,10,22,05,33,2.40
2006,10,22,05,34,2.30
2006,10,22,05,35,2.30
2006,10,22,05,36,2.30
2006,10,22,05,37,2.30
2006,10,22,05,38,2.20
2006,10,22,05,39,2.20
2006,10,22,05,40,2.20
2006,10,22,05,41,2.20
2006,10,22,05,42,2.20
2006,10,22,05,43,2.20
2006,10,22,05,44,2.20
2006,10,22,05,45,2.10
2006,10,22,05,46,2.10
2006,10,22,05,47,2.10
2006,10,22,05,48,2.00
2006,10,22,05,49,2.00
2006,10,22,05,50,2.00
2006,10,22,05,51,1.90
2006,10,22,05,52,1.90
2006,10,22,05,53,1.90
2006,10,22,05,54,1.90
2006,10,22,05,55,1.80
2006,10,22,05,56,1.80
2006,10,22,05,57,1.80
2006,10,22,05,58,1.80
2006,10,22,05,59,1.80
2006,10,22,06,00,1.80
2006,10,22,06,01,1.80
2006,10,22,06,02,1.80
2006,10,22,06,03,1.80
2006,10,22,06,04,1.80
2006,10,22,06,05,1.80
2006,10,22,06,06,1.80
2006,10,22,06,07,1.80
2006,10,22,06,08,1.80
2006,10,22,06,09,1.80
2006,10,22,06,10,1.80
2006,10,22,06,11,1.80
2006,10,22,06,12,1.80
2006,10,22,06,13,1.80
2006,10,22,06,14,1.80
2006,10,22,06,15,1.80
2006,10,22,06,16,1.80
2006,10,22,06,17,1.80
2006,10,22,06,18,1.80
2006,10,22,06,19,1.80
2006,10,22,06,20,1.80
2006,10,22,06,21,1.80
2006,10,22,06,22,1.80
2006,10,22,06,23,1.80
2006,10,22,06,24,1.80
2006,10,22,06,25,1.80
2006,10,22,06,26,1.80
2006,10,22,06,27,1.80
2006,10,22,06,28,1.80
2006,10,22,06,29,1.80
2006,10,22,06,30,1.80
2006,10,22,06,31,1.80
2006,10,22,06,32,1.80
2006,10,22,06,33,1.80
2006,10,22,06,34,1.80
2006,10,22,06,35,1.80
2006,10,22,06,36,1.80
2006,10,22,06,37,1.80
2006,10,22,06,38,1.80
2006,10,22,06,39,1.80
2006,10,22,06,40,1.80
2006,10,22,06,41,1.80
2006,10,22,06,42,1.80
2006,10,22,06,43,1.80
2006,10,22,06,44,1.80
2006,10,22,06,45,1.80
2006,10,22,06,46,1.80
2006,10,22,06,47,1.80
2006,10,22,06,48,1.80
2006,10,22,06,49,1.80
2006,10,22,06,50,1.80
2006,10,22,06,51,1.80
2006,10,22,06,52,1.80
2006,10,22,06,53,1.80
2006,10,22,06,54,1.80
2006,10,22,06,55,1.80
2006,10,22,06,56,1.80
2006,10,22,06,57,1.80
2006,10,22,06,58,1.80
2006,10,22,06,59,1.70
2006,10,22,07,00,1.70
2006,10,22,07,01,1.70
2006,10,22,07,02,1.70
2006,10,22,07,03,1.70
2006,10,22,07,04,1.70
2006,10,22,07,05,1.70
2006,10,22,07,06,1.70
2006,10,22,07,07,1.70
2006,10,22,07,08,1.70
2006,10,22,07,09,1.70
2006,10,22,07,10,1.70
2006,10,22,07,11,1.70
2006,10,22,07,12,1.70
2006,10,22,07,13,1.70
2006,10,22,07,14,1.70
2006,10,22,07,15,1.70
2006,10,22,07,16,1.70
2006,10,22,07,17,1.70
2006,10,22,07,18,1.60
2006,10,22,07,19,1.60
2006,10,22,07,20,1.60
2006,10,22,07,21,1.60
2006,10,22,07,22,1.60
2006,10,22,07,23,1.60
2006,10,22,07,24,1.60
2006,10,22,07,25,1.60
2006,10,22,07,26,1.60
2006,10,22,07,27,1.60
2006,10,22,07,28,1.60
2006,10,22,07,29,1.60
2006,10,22,07,30,1.60
2006,10,22,07,31,1.60
2006,10,22,07,32,1.60
2006,10,22,07,33,1.60
2006,10,22,07,34,1.60
2006,10,22,07,35,1.60
2006,10,22,07,36,1.50
2006,10,22,07,37,1.50
2006,10,22,07,38,1.50
2006,10,22,07,39,1.50
2006,10,22,07,40,1.50
2006,10,22,07,41,1.50
2006,10,22,07,42,1.50
2006,10,22,07,43,1.50
2006,10,22,07,44,1.50
2006,10,22,07,45,1.40
2006,10,22,07,46,1.40
2006,10,22,07,47,1.40
2006,10,22,07,48,1.40
2006,10,22,07,49,1.40
2006,10,22,07,50,1.40
2006,10,22,07,51,1.40
2006,10,22,07,52,1.40
2006,10,22,07,53,1.40
2006,10,22,07,54,1.40
2006,10,22,07,55,1.40
2006,10,22,07,56,1.40
2006,10,22,07,57,1.40
2006,10,22,07,58,1.30
2006,10,22,07,59,1.30
2006,10,22,08,00,1.30
2006,10,22,08,01,1.30
2006,10,22,08,02,1.30
2006,10,22,08,03,1.30
2006,10,22,08,04,1.40
2006,10,22,08,05,1.40
2006,10,22,08,06,1.40
2006,10,22,08,07,1.40
2006,10,22,08,08,1.30
2006,10,22,08,09,1.30
2006,10,22,08,10,1.30
2006,10,22,08,11,1.30
2006,10,22,08,12,1.30
2006,10,22,08,13,1.30
2006,10,22,08,14,1.30
2006,10,22,08,15,1.30
2006,10,22,08,16,1.30
2006,10,22,08,17,1.30
2006,10,22,08,18,1.40
2006,10,22,08,19,1.40
2006,10,22,08,20,1.40
2006,10,22,08,21,1.40
2006,10,22,08,22,1.40
2006,10,22,08,23,1.40
2006,10,22,08,24,1.40
2006,10,22,08,25,1.40
2006,10,22,08,26,1.40
2006,10,22,08,27,1.50
2006,10,22,08,28,1.50
2006,10,22,08,29,1.50
2006,10,22,08,30,1.60
2006,10,22,08,31,1.60
2006,10,22,08,32,1.60
2006,10,22,08,33,1.70
2006,10,22,08,34,1.70
2006,10,22,08,35,1.80
2006,10,22,08,36,1.80
2006,10,22,08,37,1.80
2006,10,22,08,38,1.80
2006,10,22,08,39,1.80
2006,10,22,08,40,1.90
2006,10,22,08,41,1.90
2006,10,22,08,42,1.90
2006,10,22,08,43,2.00
2006,10,22,08,44,2.00
2006,10,22,08,45,2.10
2006,10,22,08,46,2.10
2006,10,22,08,47,2.20
2006,10,22,08,48,2.20
2006,10,22,08,49,2.20
2006,10,22,08,50,2.20
2006,10,22,08,51,2.20
2006,10,22,08,52,2.20
2006,10,22,08,53,2.30
2006,10,22,08,54,2.30
2006,10,22,08,55,2.30
2006,10,22,08,56,2.30
2006,10,22,08,57,2.40
2006,10,22,08,58,2.40
2006,10,22,08,59,2.40
2006,10,22,09,00,2.50
2006,10,22,09,01,2.50
2006,10,22,09,02,2.50
2006,10,22,09,03,2.60
2006,10,22,09,04,2.60
2006,10,22,09,05,2.60
2006,10,22,09,06,2.60
2006,10,22,09,07,2.70
2006,10,22,09,08,2.70
2006,10,22,09,09,2.70
2006,10,22,09,10,2.70
2006,10,22,09,11,2.70
2006,10,22,09,12,2.70
2006,10,22,09,13,2.70
2006,10,22,09,14,2.80
2006,10,22,09,15,2.80
2006,10,22,09,16,2.80
2006,10,22,09,17,2.90
2006,10,22,09,18,2.90
2006,10,22,09,19,2.90
2006,10,22,09,20,2.90
2006,10,22,09,21,2.90
2006,10,22,09,22,3.00
2006,10,22,09,23,3.10
2006,10,22,09,24,3.10
2006,10,22,09,25,3.10
2006,10,22,09,26,3.20
2006,10,22,09,27,3.20
2006,10,22,09,28,3.30
2006,10,22,09,29,3.30
2006,10,22,09,30,3.30
2006,10,22,09,31,3.40
2006,10,22,09,32,3.40
2006,10,22,09,33,3.50
2006,10,22,09,34,3.60
2006,10,22,09,35,3.60
2006,10,22,09,36,3.70
2006,10,22,09,37,3.80
2006,10,22,09,38,3.80
2006,10,22,09,39,3.80
2006,10,22,09,40,3.90
2006,10,22,09,41,3.90
2006,10,22,09,42,3.90
2006,10,22,09,43,4.00
2006,10,22,09,44,4.00
2006,10,22,09,45,4.00
2006,10,22,09,46,4.10
2006,10,22,09,47,4.20
2006,10,22,09,48,4.20
2006,10,22,09,49,4.20
2006,10,22,09,50,4.20
2006,10,22,09,51,4.30
2006,10,22,09,52,4.30
2006,10,22,09,53,4.40
2006,10,22,09,54,4.40
2006,10,22,09,55,4.50
2006,10,22,09,56,4.50
2006,10,22,09,57,4.60
2006,10,22,09,58,4.60
2006,10,22,09,59,4.60
2006,10,22,10,00,4.70
2006,10,22,10,01,4.80
2006,10,22,10,02,4.80
2006,10,22,10,03,4.90
2006,10,22,10,04,4.90
2006,10,22,10,05,5.00
2006,10,22,10,06,5.10
2006,10,22,10,07,5.10
2006,10,22,10,08,5.20
2006,10,22,10,09,5.20
2006,10,22,10,10,5.30
2006,10,22,10,11,5.40
2006,10,22,10,12,5.40
2006,10,22,10,13,5.50
2006,10,22,10,14,5.50
2006,10,22,10,15,5.50
2006,10,22,10,16,5.60
2006,10,22,10,17,5.60
2006,10,22,10,18,5.60
2006,10,22,10,19,5.70
2006,10,22,10,20,5.70
2006,10,22,10,21,5.70
2006,10,22,10,22,5.70
2006,10,22,10,23,5.70
2006,10,22,10,24,5.70
2006,10,22,10,25,5.80
2006,10,22,10,26,5.80
2006,10,22,10,27,5.80
2006,10,22,10,28,5.90
2006,10,22,10,29,5.90
2006,10,22,10,30,6.00
2006,10,22,10,31,6.00
2006,10,22,10,32,6.00
2006,10,22,10,33,6.10
2006,10,22,10,34,6.10
2006,10,22,10,35,6.20
2006,10,22,10,36,6.20
2006,10,22,10,37,6.20
2006,10,22,10,38,6.20
2006,10,22,10,39,6.20
2006,10,22,10,40,6.20
2006,10,22,10,41,6.20
2006,10,22,10,42,6.20
2006,10,22,10,43,6.30
2006,10,22,10,44,6.30
2006,10,22,10,45,6.30
2006,10,22,10,46,6.30
2006,10,22,10,47,6.40
2006,10,22,10,48,6.40
2006,10,22,10,49,6.40
2006,10,22,10,50,6.40
2006,10,22,10,51,6.40
2006,10,22,10,52,6.40
2006,10,22,10,53,6.40
2006,10,22,10,54,6.40
2006,10,22,10,55,6.60
2006,10,22,10,56,6.60
2006,10,22,10,57,6.50
2006,10,22,10,58,6.40
2006,10,22,10,59,6.40
2006,10,22,11,00,6.40
2006,10,22,11,01,6.40
2006,10,22,11,02,6.50
2006,10,22,11,03,6.60
2006,10,22,11,04,6.50
2006,10,22,11,05,6.40
2006,10,22,11,06,6.50
2006,10,22,11,07,6.60
2006,10,22,11,08,6.60
2006,10,22,11,09,6.60
2006,10,22,11,10,6.60
2006,10,22,11,11,6.60
2006,10,22,11,12,6.60
2006,10,22,11,13,6.60
2006,10,22,11,14,6.60
2006,10,22,11,15,6.60
2006,10,22,11,16,6.60
2006,10,22,11,17,6.60
2006,10,22,11,18,6.60
2006,10,22,11,19,6.70
2006,10,22,11,20,6.70
2006,10,22,11,21,6.70
2006,10,22,11,22,6.70
2006,10,22,11,23,6.70
2006,10,22,11,24,6.80
2006,10,22,11,25,6.80
2006,10,22,11,26,6.80
2006,10,22,11,27,6.80
2006,10,22,11,28,6.80
2006,10,22,11,29,6.80
2006,10,22,11,30,6.80
2006,10,22,11,31,6.80
2006,10,22,11,32,6.80
2006,10,22,11,33,6.80
2006,10,22,11,34,6.80
2006,10,22,11,35,6.80
2006,10,22,11,36,6.80
2006,10,22,11,37,6.80
2006,10,22,11,38,6.80
2006,10,22,11,39,6.90
2006,10,22,11,40,6.90
2006,10,22,11,41,6.90
2006,10,22,11,42,7.00
2006,10,22,11,43,7.00
2006,10,22,11,44,7.00
2006,10,22,11,45,7.10
2006,10,22,11,46,7.10
2006,10,22,11,47,7.10
2006,10,22,11,48,7.20
2006,10,22,11,49,7.20
2006,10,22,11,50,7.20
2006,10,22,11,51,7.30
2006,10,22,11,52,7.30
2006,10,22,11,53,7.30
2006,10,22,11,54,7.30
2006,10,22,11,55,7.30
2006,10,22,11,56,7.30
2006,10,22,11,57,7.40
2006,10,22,11,58,7.40
2006,10,22,11,59,7.40
2006,10,22,12,00,7.50
2006,10,22,12,01,7.50
2006,10,22,12,02,7.60
2006,10,22,12,03,7.60
2006,10,22,12,04,7.60
2006,10,22,12,05,7.60
2006,10,22,12,06,7.60
2006,10,22,12,07,7.50
2006,10,22,12,08,7.40
2006,10,22,12,09,7.40
2006,10,22,12,10,7.40
2006,10,22,12,11,7.30
2006,10,22,12,12,7.30
2006,10,22,12,13,7.30
2006,10,22,12,14,7.20
2006,10,22,12,15,7.20
2006,10,22,12,16,7.10
2006,10,22,12,17,7.10
2006,10,22,12,18,7.10
2006,10,22,12,19,7.20
2006,10,22,12,20,7.20
2006,10,22,12,21,7.20
2006,10,22,12,22,7.30
2006,10,22,12,23,7.30
2006,10,22,12,24,7.30
2006,10,22,12,25,7.20
2006,10,22,12,26,7.20
2006,10,22,12,27,7.10
2006,10,22,12,28,7.10
2006,10,22,12,29,7.20
2006,10,22,12,30,7.20
2006,10,22,12,31,7.20
2006,10,22,12,32,7.30
2006,10,22,12,33,7.30
2006,10,22,12,34,7.30
2006,10,22,12,35,7.30
2006,10,22,12,36,7.30
2006,10,22,12,37,7.30
2006,10,22,12,38,7.30
2006,10,22,12,39,7.30
2006,10,22,12,40,7.30
2006,10,22,12,41,7.30
2006,10,22,12,42,7.30
2006,10,22,12,43,7.30
2006,10,22,12,44,7.20
2006,10,22,12,45,7.20
2006,10,22,12,46,7.20
2006,10,22,12,47,7.20
2006,10,22,12,48,7.20
2006,10,22,12,49,7.20
2006,10,22,12,50,7.20
2006,10,22,12,51,7.30
2006,10,22,12,52,7.30
2006,10,22,12,53,7.20
2006,10,22,12,54,7.10
2006,10,22,12,55,7.10
2006,10,22,12,56,7.00
2006,10,22,12,57,7.00
2006,10,22,12,58,7.00
2006,10,22,12,59,7.00
2006,10,22,13,00,7.10
2006,10,22,13,01,7.10
2006,10,22,13,02,7.10
2006,10,22,13,03,7.10
2006,10,22,13,04,7.10
2006,10,22,13,05,7.10
2006,10,22,13,06,7.00
2006,10,22,13,07,7.00
2006,10,22,13,08,7.00
2006,10,22,13,09,6.90
2006,10,22,13,10,7.00
2006,10,22,13,11,7.00
2006,10,22,13,12,7.00
2006,10,22,13,13,7.00
2006,10,22,13,14,7.10
2006,10,22,13,15,7.10
2006,10,22,13,16,7.10
2006,10,22,13,17,7.10
2006,10,22,13,18,7.10
2006,10,22,13,19,7.20
2006,10,22,13,20,7.20
2006,10,22,13,21,7.10
2006,10,22,13,22,7.10
2006,10,22,13,23,7.00
2006,10,22,13,24,7.00
2006,10,22,13,25,7.00
2006,10,22,13,26,6.90
2006,10,22,13,27,6.90
2006,10,22,13,28,6.90
2006,10,22,13,29,6.90
2006,10,22,13,30,6.90
2006,10,22,13,31,6.90
2006,10,22,13,32,7.00
2006,10,22,13,33,7.00
2006,10,22,13,34,7.00
2006,10,22,13,35,7.00
2006,10,22,13,36,7.00
2006,10,22,13,37,7.00
2006,10,22,13,38,7.00
2006,10,22,13,39,7.00
2006,10,22,13,40,7.00
2006,10,22,13,41,7.00
2006,10,22,13,42,7.00
2006,10,22,13,43,7.00
2006,10,22,13,44,7.00
2006,10,22,13,45,7.00
2006,10,22,13,46,7.10
2006,10,22,13,47,7.10
2006,10,22,13,48,7.10
2006,10,22,13,49,7.10
2006,10,22,13,50,7.10
2006,10,22,13,51,7.10
2006,10,22,13,52,7.20
2006,10,22,13,53,7.20
2006,10,22,13,54,7.20
2006,10,22,13,55,7.20
2006,10,22,13,56,7.20
2006,10,22,13,57,7.20
2006,10,22,13,58,7.20
2006,10,22,13,59,7.20
2006,10,22,14,00,7.10
2006,10,22,14,01,7.10
2006,10,22,14,02,7.10
2006,10,22,14,03,7.20
2006,10,22,14,04,7.20
2006,10,22,14,05,7.20
2006,10,22,14,06,7.20
2006,10,22,14,07,7.20
2006,10,22,14,08,7.20
2006,10,22,14,09,7.20
2006,10,22,14,10,7.20
2006,10,22,14,11,7.20
2006,10,22,14,12,7.20
2006,10,22,14,13,7.20
2006,10,22,14,14,7.20
2006,10,22,14,15,7.30
2006,10,22,14,16,7.30
2006,10,22,14,17,7.30
2006,10,22,14,18,7.30
2006,10,22,14,19,7.30
2006,10,22,14,20,7.30
2006,10,22,14,21,7.30
2006,10,22,14,22,7.30
2006,10,22,14,23,7.30
2006,10,22,14,24,7.30
2006,10,22,14,25,7.30
2006,10,22,14,26,7.30
2006,10,22,14,27,7.30
2006,10,22,14,28,7.30
2006,10,22,14,29,7.30
2006,10,22,14,30,7.30
2006,10,22,14,31,7.30
2006,10,22,14,32,7.30
2006,10,22,14,33,7.30
2006,10,22,14,34,7.30
2006,10,22,14,35,7.30
2006,10,22,14,36,7.30
2006,10,22,14,37,7.30
2006,10,22,14,38,7.30
2006,10,22,14,39,7.30
2006,10,22,14,40,7.30
2006,10,22,14,41,7.30
2006,10,22,14,42,7.30
2006,10,22,14,43,7.30
2006,10,22,14,44,7.30
2006,10,22,14,45,7.30
2006,10,22,14,46,7.30
2006,10,22,14,47,7.30
2006,10,22,14,48,7.30
2006,10,22,14,49,7.30
2006,10,22,14,50,7.30
2006,10,22,14,51,7.30
2006,10,22,14,52,7.30
2006,10,22,14,53,7.30
2006,10,22,14,54,7.30
2006,10,22,14,55,7.30
2006,10,22,14,56,7.30
2006,10,22,14,57,7.30
2006,10,22,14,58,7.30
2006,10,22,14,59,7.40
2006,10,22,15,00,7.40
2006,10,22,15,01,7.50
2006,10,22,15,02,7.50
2006,10,22,15,03,7.60
2006,10,22,15,04,7.60
2006,10,22,15,05,7.60
2006,10,22,15,06,7.60
2006,10,22,15,07,7.70
2006,10,22,15,08,7.70
2006,10,22,15,09,7.70
2006,10,22,15,10,7.70
2006,10,22,15,11,7.70
2006,10,22,15,12,7.80
2006,10,22,15,13,7.80
2006,10,22,15,14,7.80
2006,10,22,15,15,7.80
2006,10,22,15,16,7.90
2006,10,22,15,17,7.90
2006,10,22,15,18,8.00
2006,10,22,15,19,8.00
2006,10,22,15,20,8.00
2006,10,22,15,21,8.10
2006,10,22,15,22,8.10
2006,10,22,15,23,8.10
2006,10,22,15,24,8.20
2006,10,22,15,25,8.20
2006,10,22,15,26,8.20
2006,10,22,15,27,8.20
2006,10,22,15,28,8.30
2006,10,22,15,29,8.30
2006,10,22,15,30,8.30
2006,10,22,15,31,8.30
2006,10,22,15,32,8.30
2006,10,22,15,33,8.30
2006,10,22,15,34,8.40
2006,10,22,15,35,8.40
2006,10,22,15,36,8.40
2006,10,22,15,37,8.40
2006,10,22,15,38,8.40
2006,10,22,15,39,8.40
2006,10,22,15,40,8.40
2006,10,22,15,41,8.50
2006,10,22,15,42,8.50
2006,10,22,15,43,8.50
2006,10,22,15,44,8.50
2006,10,22,15,45,8.50
2006,10,22,15,46,8.60
2006,10,22,15,47,8.60
2006,10,22,15,48,8.60
2006,10,22,15,49,8.60
2006,10,22,15,50,8.60
2006,10,22,15,51,8.70
2006,10,22,15,52,8.70
2006,10,22,15,53,8.70
2006,10,22,15,54,8.70
2006,10,22,15,55,8.70
2006,10,22,15,56,8.70
2006,10,22,15,57,8.70
2006,10,22,15,58,8.70
2006,10,22,15,59,8.80
2006,10,22,16,00,8.80
2006,10,22,16,01,8.90
2006,10,22,16,02,8.90
2006,10,22,16,03,8.90
2006,10,22,16,04,9.00
2006,10,22,16,05,9.00
2006,10,22,16,06,9.10
2006,10,22,16,07,9.10
2006,10,22,16,08,9.10
2006,10,22,16,09,9.20
2006,10,22,16,10,9.20
2006,10,22,16,11,9.20
2006,10,22,16,12,9.30
2006,10,22,16,13,9.40
2006,10,22,16,14,9.50
2006,10,22,16,15,9.50
2006,10,22,16,16,9.60
2006,10,22,16,17,9.70
2006,10,22,16,18,9.70
2006,10,22,16,19,9.80
2006,10,22,16,20,9.90
2006,10,22,16,21,9.90
2006,10,22,16,22,10.10
2006,10,22,16,23,10.10
2006,10,22,16,24,10.20
2006,10,22,16,25,10.20
2006,10,22,16,26,10.30
2006,10,22,16,27,10.40
2006,10,22,16,28,10.40
2006,10,22,16,29,10.40
2006,10,22,16,30,10.40
2006,10,22,16,31,10.40
2006,10,22,16,32,10.40
2006,10,22,16,33,10.50
2006,10,22,16,34,10.60
2006,10,22,16,35,10.60
2006,10,22,16,36,10.60
2006,10,22,16,37,10.60
2006,10,22,16,38,10.60
2006,10,22,16,39,10.60
2006,10,22,16,40,10.60
2006,10,22,16,41,10.60
2006,10,22,16,42,10.60
2006,10,22,16,43,10.60
2006,10,22,16,44,10.60
2006,10,22,16,45,10.60
2006,10,22,16,46,10.60
2006,10,22,16,47,10.60
2006,10,22,16,48,10.60
2006,10,22,16,49,10.60
2006,10,22,16,50,10.60
2006,10,22,16,51,10.60
2006,10,22,16,52,10.60
2006,10,22,16,53,10.60
2006,10,22,16,54,10.60
2006,10,22,16,55,10.60
2006,10,22,16,56,10.60
2006,10,22,16,57,10.60
2006,10,22,16,58,10.60
2006,10,22,16,59,10.70
2006,10,22,17,00,10.70
2006,10,22,17,01,10.70
2006,10,22,17,02,10.70
2006,10,22,17,03,10.70
2006,10,22,17,04,10.70
2006,10,22,17,05,10.70
2006,10,22,17,06,10.70
2006,10,22,17,07,10.70
2006,10,22,17,08,10.70
2006,10,22,17,09,10.70
2006,10,22,17,10,10.70
2006,10,22,17,11,10.80
2006,10,22,17,12,10.80
2006,10,22,17,13,10.80
2006,10,22,17,14,10.80
2006,10,22,17,15,10.90
2006,10,22,17,16,10.90
2006,10,22,17,17,10.90
2006,10,22,17,18,10.90
2006,10,22,17,19,10.90
2006,10,22,17,20,10.90
2006,10,22,17,21,10.90
2006,10,22,17,22,10.90
2006,10,22,17,23,11.00
2006,10,22,17,24,11.10
2006,10,22,17,25,11.10
2006,10,22,17,26,11.10
2006,10,22,17,27,11.10
2006,10,22,17,28,11.10
2006,10,22,17,29,11.10
2006,10,22,17,30,11.10
2006,10,22,17,31,11.10
2006,10,22,17,32,11.10
2006,10,22,17,33,11.10
2006,10,22,17,34,11.10
2006,10,22,17,35,11.10
2006,10,22,17,36,11.10
2006,10,22,17,37,11.10
2006,10,22,17,38,11.10
2006,10,22,17,39,11.10
2006,10,22,17,40,11.10
2006,10,22,17,41,11.10
2006,10,22,17,42,11.10
2006,10,22,17,43,11.10
2006,10,22,17,44,11.10
2006,10,22,17,45,11.10
2006,10,22,17,46,11.10
2006,10,22,17,47,11.10
2006,10,22,17,48,11.10
2006,10,22,17,49,11.10
2006,10,22,17,50,11.10
2006,10,22,17,51,11.10
2006,10,22,17,52,11.10
2006,10,22,17,53,11.10
2006,10,22,17,54,11.10
2006,10,22,17,55,11.10
2006,10,22,17,56,11.10
2006,10,22,17,57,11.10
2006,10,22,17,58,11.10
2006,10,22,17,59,11.10
2006,10,22,18,00,11.10
2006,10,22,18,01,11.10
2006,10,22,18,02,11.10